Date String (YYYY-MM-DD hh:mm:ss) UTC,Instrument flags,Ambient pressure (hPa),Sample flow (lpm),Bypass flow (lpm),Sample temperature (°C),Ambient temperature (°C),ASC tube jacket temperature (°C),LED temperature (°C),Box temperature (°C),Sample RH (%),Span deviation,Mass concentration (μg/m³),Mass concentration (μg/m³),Mass concentration (μg/m³)
DateTimeUTC,F1_M11,P_M11,Q1_M11,Q2_M11,T1_M11,T2_M11,T3_M11,T4_M11,T5_M11,U1_M11,ZSPAN_M11,X0_M11,X2_M11,X1_M11
2021-10-14 15:00:00,,0823.7,4.99,0.00,23.4,22.6,00.0,32.5,25.3,17.2,0000.0,0008.68,0004.43,0003.93
2021-10-14 15:01:00,,0823.8,5.00,0.00,23.5,22.6,00.0,32.5,25.3,17.4,0000.0,0009.43,0004.46,0003.93
2021-10-14 15:02:00,,0823.7,5.01,0.00,23.5,22.6,00.0,32.5,25.3,17.4,0000.0,0009.86,0004.47,0003.93
2021-10-14 15:03:00,,0823.7,5.00,0.00,23.5,22.6,00.0,32.6,25.3,17.0,0000.0,0009.76,0004.46,0003.95
2021-10-14 15:04:00,,0823.7,5.00,0.00,23.5,22.6,00.0,32.6,25.3,17.1,0000.0,0010.07,0004.46,0003.95
2021-10-14 15:05:00,,0823.7,5.00,0.00,23.5,22.7,00.0,32.6,25.3,17.1,0000.0,0009.64,0004.48,0003.96
2021-10-14 15:06:00,,0823.7,4.99,0.00,23.5,22.7,00.0,32.6,25.3,17.3,0000.0,0009.73,0004.50,0003.96
2021-10-14 15:07:00,,0823.8,5.01,0.00,23.5,22.7,00.0,32.6,25.3,17.3,0000.0,0009.77,0004.53,0003.97
2021-10-14 15:08:00,,0823.8,5.00,0.00,23.5,22.7,00.0,32.6,25.3,17.2,0000.0,0009.61,0004.59,0003.98
2021-10-14 15:09:00,,0823.7,4.99,0.00,23.5,22.7,00.0,32.6,25.4,17.2,0000.0,0009.54,0004.60,0004.00
2021-10-14 15:10:00,,0823.7,5.00,0.00,23.5,22.7,00.0,32.6,25.4,17.2,0000.0,0009.49,0004.57,0004.00
2021-10-14 15:11:00,,0823.8,5.01,0.00,23.5,22.7,00.0,32.6,25.4,17.1,0000.0,0009.42,0004.56,0004.01
2021-10-14 15:12:00,,0823.7,4.99,0.00,23.5,22.7,00.0,32.6,25.4,17.3,0000.0,0008.74,0004.53,0004.00
2021-10-14 15:13:00,,0823.7,5.00,0.00,23.6,22.7,00.0,32.6,25.4,17.1,0000.0,0008.71,0004.52,0004.00
2021-10-14 15:14:00,,0823.7,5.01,0.00,23.6,22.7,00.0,32.6,25.4,17.1,0000.0,0008.61,0004.50,0003.99
2021-10-14 15:15:00,,0823.7,5.00,0.00,23.6,22.7,00.0,32.6,25.4,16.9,0000.0,0008.74,0004.46,0003.98
2021-10-14 15:16:00,,0823.7,4.99,0.00,23.6,22.7,00.0,32.6,25.4,16.9,0000.0,0008.71,0004.45,0003.98
2021-10-14 15:17:00,,0823.7,5.00,0.00,23.6,22.8,00.0,32.6,25.5,16.8,0000.0,0008.56,0004.39,0003.97
2021-10-14 15:18:00,,0823.7,5.00,0.00,23.6,22.7,00.0,32.7,25.5,16.7,0000.0,0008.45,0004.36,0003.97
2021-10-14 15:19:00,,0823.7,5.00,0.00,23.6,22.7,00.0,32.7,25.5,16.7,0000.0,0008.33,0004.34,0003.97
2021-10-14 15:20:00,,0823.7,4.99,0.00,23.6,22.7,00.0,32.7,25.4,16.9,0000.0,0008.50,0004.35,0003.97
2021-10-14 15:21:00,,0823.7,5.00,0.00,23.6,22.8,00.0,32.7,25.5,16.9,0000.0,0008.57,0004.36,0003.97
2021-10-14 15:22:00,,0823.7,4.99,0.00,23.6,22.8,00.0,32.7,25.5,17.1,0000.0,0008.89,0004.38,0003.99
2021-10-14 15:23:00,,0823.7,5.01,0.00,23.6,22.8,00.0,32.7,25.5,17.2,0000.0,0009.15,0004.40,0004.01
2021-10-14 15:24:00,,0823.7,4.98,0.00,23.6,22.8,00.0,32.7,25.5,17.4,0000.0,0009.37,0004.41,0004.02
2021-10-14 15:25:00,,0823.7,5.01,0.00,23.6,22.8,00.0,32.7,25.5,17.1,0000.0,0009.40,0004.44,0004.03
2021-10-14 15:26:00,,0823.7,5.00,0.00,23.6,22.8,00.0,32.7,25.5,17.0,0000.0,0008.75,0004.47,0004.05
2021-10-14 15:27:00,,0823.7,4.99,0.00,23.6,22.8,00.0,32.7,25.5,16.9,0000.0,0008.71,0004.48,0004.05
2021-10-14 15:28:00,,0823.7,5.00,0.00,23.6,22.8,00.0,32.7,25.5,16.8,0000.0,0008.69,0004.50,0004.07
2021-10-14 15:29:00,,0823.7,5.01,0.00,23.6,22.8,00.0,32.7,25.5,16.9,0000.0,0008.96,0004.51,0004.07
2021-10-14 15:30:00,,0823.7,5.00,0.00,23.7,22.8,00.0,32.7,25.5,17.1,0000.0,0009.38,0004.50,0004.07
2021-10-14 15:31:00,,0823.7,5.01,0.00,23.7,22.9,00.0,32.7,25.5,17.0,0000.0,0009.26,0004.49,0004.06
2021-10-14 15:32:00,,0823.7,4.99,0.00,23.7,22.9,00.0,32.7,25.5,16.9,0000.0,0009.16,0004.48,0004.05
2021-10-14 15:33:00,,0823.7,5.01,0.00,23.7,22.9,00.0,32.7,25.5,16.8,0000.0,0008.86,0004.44,0004.04
2021-10-14 15:34:00,,0823.7,4.99,0.00,23.7,22.9,00.0,32.8,25.6,16.6,0000.0,0008.79,0004.45,0004.04
2021-10-14 15:35:00,,0823.7,5.01,0.00,23.7,22.9,00.0,32.8,25.6,16.5,0000.0,0008.43,0004.47,0004.04
2021-10-14 15:36:00,,0823.7,4.99,0.00,23.7,22.9,00.0,32.8,25.6,16.5,0000.0,0008.41,0004.46,0004.03
2021-10-14 15:37:00,,0823.7,5.00,0.00,23.7,22.9,00.0,32.8,25.6,16.6,0000.0,0008.55,0004.49,0004.02
2021-10-14 15:38:00,,0823.7,5.01,0.00,23.7,22.9,00.0,32.8,25.6,16.5,0000.0,0008.55,0004.47,0004.01
2021-10-14 15:39:00,,0823.7,4.99,0.00,23.7,22.9,00.0,32.8,25.6,16.5,0000.0,0009.20,0004.46,0004.00
2021-10-14 15:40:00,,0823.7,5.00,0.00,23.8,22.9,00.0,32.8,25.6,16.4,0000.0,0009.14,0004.44,0004.00
2021-10-14 15:41:00,,0823.7,5.00,0.00,23.8,22.9,00.0,32.8,25.6,16.3,0000.0,0008.58,0004.43,0003.99
2021-10-14 15:42:00,,0823.6,5.01,0.00,23.8,22.9,00.0,32.8,25.6,16.4,0000.0,0008.42,0004.41,0003.98
2021-10-14 15:43:00,,0823.7,4.99,0.00,23.8,22.9,00.0,32.8,25.6,16.2,0000.0,0008.42,0004.41,0003.98
2021-10-14 15:44:00,,0823.7,5.00,0.00,23.8,22.9,00.0,32.8,25.6,16.2,0000.0,0008.48,0004.44,0003.99
2021-10-14 15:45:00,,0823.6,5.00,0.00,23.8,22.9,00.0,32.8,25.6,16.2,0000.0,0008.27,0004.41,0003.98
2021-10-14 15:46:00,,0823.6,4.99,0.00,23.8,22.9,00.0,32.8,25.6,16.3,0000.0,0008.53,0004.37,0003.97
2021-10-14 15:47:00,,0823.7,5.02,0.00,23.8,22.9,00.0,32.8,25.6,16.3,0000.0,0008.57,0004.37,0003.97
2021-10-14 15:48:00,,0823.7,4.99,0.00,23.8,22.9,00.0,32.8,25.6,16.2,0000.0,0008.55,0004.35,0003.96
2021-10-14 15:49:00,,0823.7,5.01,0.00,23.8,22.9,00.0,32.9,25.6,16.4,0000.0,0008.86,0004.35,0003.96
2021-10-14 15:50:00,,0823.7,5.00,0.00,23.8,23.0,00.0,32.9,25.6,16.4,0000.0,0008.84,0004.33,0003.95
2021-10-14 15:51:00,,0823.7,4.99,0.00,23.8,23.0,00.0,32.9,25.6,16.4,0000.0,0009.13,0004.32,0003.93
2021-10-14 15:52:00,,0823.7,5.00,0.00,23.8,23.0,00.0,32.9,25.6,16.2,0000.0,0009.28,0004.32,0003.92
2021-10-14 15:53:00,,0823.7,4.99,0.00,23.8,23.0,00.0,32.9,25.6,16.1,0000.0,0009.60,0004.35,0003.93
2021-10-14 15:54:00,,0823.7,5.01,0.00,23.8,23.0,00.0,32.9,25.6,16.2,0000.0,0010.22,0004.37,0003.91
2021-10-14 15:55:00,,0823.7,5.01,0.00,23.8,23.0,00.0,32.9,25.6,16.2,0000.0,0010.85,0004.36,0003.90
2021-10-14 15:56:00,,0823.7,5.00,0.00,23.8,23.0,00.0,32.9,25.6,16.2,0000.0,0010.87,0004.38,0003.90
2021-10-14 15:57:00,,0823.7,5.00,0.00,23.9,23.0,00.0,32.9,25.7,16.2,0000.0,0010.56,0004.39,0003.90
2021-10-14 15:58:00,,0823.7,5.01,0.00,23.9,23.0,00.0,32.9,25.7,16.5,0000.0,0010.60,0004.41,0003.89
2021-10-14 15:59:00,,0823.7,4.99,0.00,23.9,23.0,00.0,32.9,25.7,16.4,0000.0,0010.84,0004.43,0003.89
